Volver al catálogo

STARLINK-32497

ActivoComunicacionesVLEO
NORAD 62161·PAYLOAD·🇺🇸 United States

Lanzado Nov 30, 2024 desde Cape Canaveral Space Force Station

Loading…

Próximos Pases (próximas 24 horas)

TLE

ActualizadoSource: CelesTrak SupGP

Época: Sep 14, 2026, 22:42 UTC

1 62161C 24224Y   26257.94631944 -.00033823  00000+0 -12252-2 0  2573
2 62161  43.0004 172.6480 0001299 266.0088 159.3983 15.27592822    10

Sigue STARLINK-32497 en tiempo real con AllMySat

Download on the App Store